Location: Asheville, NC
(35.6000°N, 82.5500°W)
Time: 00:25:51
(UTC-04:00)

Vanguard 1 Rocket - Pass Details

Date: 11 March 2018
Orbit: 653 x 4224 km, 34.3° (Epoch: 22 June)

Event Time Altitude Azimuth Distance (km) Brightness Sun altitude
Rises 03:13:11 0° 285° (WNW) 7,034 11.8 -51.6°
Enters shadow 03:14:26 - 283° (WNW) 6,863 11.7 -51.4°
Reaches altitude 10° 03:17:58 10° 278° (W) 6,421 - -50.9°
Maximum altitude 03:37:09 36° 221° (SW) 5,441 - -48.2°
Exits shadow 03:53:21 19° 173° (S) 6,465 11.4 -45.7°
Drops below altitude 10° 03:58:40 10° 164° (SSE) 7,032 11.7 -44.9°
Sets 04:04:27 0° 156° (SSE) 7,724 12.0 -43.9°
